Terminal Aerodrome Forecast
Issued by NWS

Home | Current Version | Previous Version | Text Only | Print | Product List | Glossary On
Versions: 1 2 3 4 5 6 7 8 9 10 11 12 13 14 15 16 17 18 19 20 21 22 23 24 25 26 27 28 29 30 31 32 33 34 35 36 37 38 39 40 41 42 43 44 45 46 47 48 49
000
FTUS43 KMKX 311128
TAFUES
TAF
KUES 311128Z 3112/0112 25005KT P6SM FEW100
     FM311500 27008KT P6SM SCT040
     FM311800 27010G15KT P6SM SCT050
      TEMPO 3118/3122 BKN050
     FM010100 25004KT P6SM SCT050=

USA.gov is the U.S. government's official web portal to all federal, state and local government web resources and services.